[Date Prev][Date Next][Thread Prev][Thread Next] - [Date Index][Thread Index][Author Index]
2 Line ISS Keps 12-27
- Subject: [sarex] 2 Line ISS Keps 12-27
- From: "Dave Larsen PhD" <doc@xxxxxxxxxxx>
- Date: Thu, 27 Dec 2001 04:06:39 -0800
ISS
1 25544U 98067A 01361.18113426 .00059084 00000-0 69061-3 0 8919
2 25544 51.6386 197.5814 0002618 70.2033 86.5515 15.61006754177198
----
Via the sarex mailing list at AMSAT.ORG courtesy of AMSAT-NA.
To unsubscribe, send "unsubscribe sarex" to Majordomo@amsat.org
AMSAT Home